N2DM KPWM-KBOS

Flight info

Callsign N2DM
Flight time N/A
Altitude 10000
Route ENE V167 SCUPP
Aircraft TBM9/L-VGDW/C

Departure

Time 2026-04-28 19:37
Airport Portland International Jetport (KPWM)

Arrival

Time N/A
Airport Boston Logan International Airport (KBOS)
Time Latitude Longitude Altitude Speed Heading
2026-04-28 19:21 43.64913 -70.30831 56 ft 0 kts 252°
2026-04-28 19:29 43.64912 -70.30833 56 ft 1 kts 240°
2026-04-28 19:29 43.64900 -70.30828 53 ft 5 kts 83°
2026-04-28 19:29 43.64913 -70.30797 54 ft 0 kts 56°
2026-04-28 19:29 43.64914 -70.30797 54 ft 1 kts 56°
2026-04-28 19:30 43.64926 -70.30744 53 ft 6 kts 87°
2026-04-28 19:30 43.64904 -70.30705 52 ft 7 kts 182°
2026-04-28 19:30 43.64836 -70.30706 53 ft 12 kts 180°
2026-04-28 19:30 43.64752 -70.30701 55 ft 12 kts 179°
2026-04-28 19:31 43.64662 -70.30698 55 ft 14 kts 178°
2026-04-28 19:31 43.64576 -70.30716 52 ft 10 kts 236°
2026-04-28 19:31 43.64578 -70.30832 54 ft 14 kts 275°
2026-04-28 19:31 43.64588 -70.30984 57 ft 17 kts 275°
2026-04-28 19:32 43.64599 -70.31151 59 ft 18 kts 275°
2026-04-28 19:32 43.64611 -70.31323 62 ft 18 kts 275°
2026-04-28 19:32 43.64622 -70.31493 65 ft 18 kts 275°
2026-04-28 19:32 43.64634 -70.31662 68 ft 17 kts 276°
2026-04-28 19:33 43.64644 -70.31819 74 ft 16 kts 275°
2026-04-28 19:33 43.64655 -70.31980 76 ft 17 kts 276°
2026-04-28 19:33 43.64666 -70.32145 81 ft 17 kts 276°
2026-04-28 19:33 43.64677 -70.32309 83 ft 18 kts 276°
2026-04-28 19:34 43.64688 -70.32489 74 ft 17 kts 272°
2026-04-28 19:34 43.64673 -70.32581 73 ft 8 kts 183°
2026-04-28 19:34 43.64664 -70.32582 76 ft 0 kts 182°
2026-04-28 19:36 43.64637 -70.32584 83 ft 7 kts 185°
2026-04-28 19:36 43.64589 -70.32578 81 ft 7 kts 123°
2026-04-28 19:36 43.64572 -70.32362 79 ft 55 kts 95°
2026-04-28 19:36 43.64503 -70.31553 209 ft 106 kts 98°
2026-04-28 19:37 43.64374 -70.30416 653 ft 132 kts 101°
2026-04-28 19:37 43.64256 -70.29562 1093 ft 141 kts 103°
2026-04-28 19:37 43.63954 -70.27713 2085 ft 143 kts 101°
2026-04-28 19:37 43.63836 -70.26424 2916 ft 137 kts 98°
2026-04-28 19:38 43.63622 -70.24970 3062 ft 171 kts 117°
2026-04-28 19:38 43.62751 -70.24074 3955 ft 155 kts 166°
2026-04-28 19:38 43.61681 -70.24190 4562 ft 161 kts 199°
2026-04-28 19:38 43.60824 -70.25220 5099 ft 169 kts 234°
2026-04-28 19:39 43.60201 -70.26617 5679 ft 170 kts 236°
2026-04-28 19:39 43.59553 -70.27951 6341 ft 169 kts 232°
2026-04-28 19:39 43.58880 -70.29282 7030 ft 170 kts 233°
2026-04-28 19:39 43.58201 -70.30635 7672 ft 172 kts 233°
2026-04-28 19:40 43.57509 -70.32002 8344 ft 173 kts 232°
2026-04-28 19:40 43.56819 -70.33362 9032 ft 175 kts 233°
2026-04-28 19:40 43.56116 -70.34752 9729 ft 178 kts 233°
2026-04-28 19:40 43.55363 -70.36239 10002 ft 205 kts 234°
2026-04-28 19:41 43.54500 -70.37962 10007 ft 234 kts 234°
2026-04-28 19:41 43.53530 -70.39891 10008 ft 253 kts 234°
2026-04-28 19:41 43.52541 -70.41853 10008 ft 236 kts 234°
2026-04-28 19:41 43.51633 -70.43623 9999 ft 217 kts 233°
2026-04-28 19:42 43.50789 -70.45261 9983 ft 207 kts 233°
2026-04-28 19:42 43.49969 -70.46871 9987 ft 201 kts 234°
2026-04-28 19:42 43.49181 -70.48415 9978 ft 198 kts 233°
2026-04-28 19:42 43.48657 -70.49446 9977 ft 196 kts 233°
2026-04-28 19:43 43.47616 -70.51480 9976 ft 195 kts 233°
2026-04-28 19:43 43.46839 -70.53013 9976 ft 194 kts 234°
2026-04-28 19:43 43.46059 -70.54539 9980 ft 194 kts 233°
2026-04-28 19:43 43.45297 -70.56031 9974 ft 191 kts 234°
2026-04-28 19:44 43.44535 -70.57525 9972 ft 189 kts 233°
2026-04-28 19:44 43.43765 -70.58992 9965 ft 187 kts 228°
2026-04-28 19:44 43.42739 -70.60045 9971 ft 183 kts 204°
2026-04-28 19:44 43.41532 -70.60490 9967 ft 182 kts 182°
2026-04-28 19:45 43.40285 -70.60297 9971 ft 179 kts 162°
2026-04-28 19:45 43.39108 -70.59722 9976 ft 179 kts 160°
2026-04-28 19:45 43.37934 -70.59177 9975 ft 179 kts 161°
2026-04-28 19:45 43.36760 -70.58632 9975 ft 179 kts 160°
2026-04-28 19:46 43.35585 -70.58077 9978 ft 179 kts 160°
2026-04-28 19:46 43.34409 -70.57518 9980 ft 179 kts 160°
2026-04-28 19:46 43.33230 -70.56961 9984 ft 179 kts 160°
2026-04-28 19:46 43.32047 -70.56404 9981 ft 179 kts 160°
2026-04-28 19:47 43.30876 -70.55855 9979 ft 180 kts 160°
2026-04-28 19:47 43.29689 -70.55298 9978 ft 179 kts 160°
2026-04-28 19:47 43.28509 -70.54741 9981 ft 179 kts 160°
2026-04-28 19:47 43.27340 -70.54191 9979 ft 179 kts 160°
2026-04-28 19:48 43.26153 -70.53635 9976 ft 179 kts 160°
2026-04-28 19:48 43.24973 -70.53080 9978 ft 179 kts 159°
2026-04-28 19:48 43.23793 -70.52525 9975 ft 179 kts 160°
2026-04-28 19:48 43.22623 -70.51976 9980 ft 179 kts 160°
2026-04-28 19:49 43.21441 -70.51422 9977 ft 179 kts 159°
2026-04-28 19:49 43.20257 -70.50867 9982 ft 179 kts 159°
2026-04-28 19:49 43.19083 -70.50316 9976 ft 179 kts 160°
2026-04-28 19:49 43.17891 -70.49757 9974 ft 180 kts 160°
2026-04-28 19:50 43.15525 -70.48654 9975 ft 180 kts 159°
2026-04-28 19:50 43.14347 -70.48100 9972 ft 180 kts 160°
2026-04-28 19:50 43.13171 -70.47550 9971 ft 180 kts 159°
2026-04-28 19:51 43.11983 -70.46993 9974 ft 180 kts 159°
2026-04-28 19:51 43.10794 -70.46439 9976 ft 180 kts 160°
2026-04-28 19:51 43.09617 -70.45889 9974 ft 180 kts 159°
2026-04-28 19:51 43.08431 -70.45333 9976 ft 180 kts 160°
2026-04-28 19:52 43.07241 -70.44779 9972 ft 180 kts 159°
2026-04-28 19:52 43.06065 -70.44232 9971 ft 180 kts 159°
2026-04-28 19:52 43.04874 -70.43676 9973 ft 180 kts 159°
2026-04-28 19:52 43.03697 -70.43126 9974 ft 180 kts 160°
2026-04-28 19:53 43.02506 -70.42573 9970 ft 180 kts 159°
2026-04-28 19:53 43.01324 -70.42020 9970 ft 180 kts 159°
2026-04-28 19:53 43.00131 -70.41466 9969 ft 180 kts 160°
2026-04-28 19:53 42.98953 -70.40918 9971 ft 181 kts 159°
2026-04-28 19:54 42.97758 -70.40362 9971 ft 181 kts 159°
2026-04-28 19:54 42.96566 -70.39807 9969 ft 181 kts 160°
2026-04-28 19:54 42.95385 -70.39260 9965 ft 181 kts 160°
2026-04-28 19:54 42.94192 -70.38704 9965 ft 181 kts 159°
2026-04-28 19:55 42.93000 -70.38151 9964 ft 181 kts 159°
2026-04-28 19:55 42.91804 -70.37595 9962 ft 181 kts 159°
2026-04-28 19:55 42.90604 -70.37037 9965 ft 181 kts 160°
2026-04-28 19:55 42.89415 -70.36488 9963 ft 181 kts 159°
2026-04-28 19:56 42.88216 -70.35931 9961 ft 181 kts 159°
2026-04-28 19:56 42.87016 -70.35374 9963 ft 182 kts 159°
2026-04-28 19:56 42.85833 -70.34826 9959 ft 182 kts 159°
2026-04-28 19:56 42.84632 -70.34270 9960 ft 182 kts 159°
2026-04-28 19:57 42.83430 -70.33714 9964 ft 182 kts 160°
2026-04-28 19:57 42.82229 -70.33158 9963 ft 182 kts 159°
2026-04-28 19:57 42.81026 -70.32602 9961 ft 182 kts 159°
2026-04-28 19:57 42.79820 -70.32044 9962 ft 183 kts 159°
2026-04-28 19:58 42.78632 -70.31495 9960 ft 182 kts 159°
2026-04-28 19:58 42.77425 -70.30936 9958 ft 182 kts 159°
2026-04-28 19:58 42.76224 -70.30382 9961 ft 182 kts 159°
2026-04-28 19:58 42.75020 -70.29825 9956 ft 182 kts 159°
2026-04-28 19:59 42.73814 -70.29269 9959 ft 182 kts 159°
2026-04-28 19:59 42.72623 -70.28720 9958 ft 183 kts 159°
2026-04-28 19:59 42.71409 -70.28161 9958 ft 183 kts 159°
2026-04-28 19:59 42.70211 -70.27608 9957 ft 183 kts 159°
2026-04-28 20:00 42.69004 -70.27053 9955 ft 183 kts 159°
2026-04-28 20:00 42.67797 -70.26497 9955 ft 183 kts 159°
2026-04-28 20:00 42.66584 -70.25939 9956 ft 183 kts 159°
2026-04-28 20:00 42.65388 -70.25388 9955 ft 184 kts 159°
2026-04-28 20:01 42.64175 -70.24833 9959 ft 184 kts 161°
2026-04-28 20:01 42.62899 -70.24862 9969 ft 188 kts 198°
2026-04-28 20:01 42.61707 -70.25628 9976 ft 189 kts 206°
2026-04-28 20:01 42.60539 -70.26437 9974 ft 190 kts 206°
2026-04-28 20:02 42.59356 -70.27255 9971 ft 190 kts 206°
2026-04-28 20:02 42.58170 -70.28071 9970 ft 190 kts 206°
2026-04-28 20:02 42.56999 -70.28879 9967 ft 191 kts 206°
2026-04-28 20:02 42.55807 -70.29700 9968 ft 191 kts 206°
2026-04-28 20:03 42.54636 -70.30507 9971 ft 191 kts 206°
2026-04-28 20:03 42.53449 -70.31325 9969 ft 191 kts 206°
2026-04-28 20:03 42.52261 -70.32142 9966 ft 191 kts 206°
2026-04-28 20:03 42.51088 -70.32947 9965 ft 191 kts 206°
2026-04-28 20:04 42.49895 -70.33766 9966 ft 191 kts 206°
2026-04-28 20:04 42.48721 -70.34570 9964 ft 191 kts 206°
2026-04-28 20:04 42.47528 -70.35387 9965 ft 191 kts 206°
2026-04-28 20:04 42.46353 -70.36191 9960 ft 191 kts 206°
2026-04-28 20:05 42.45162 -70.37006 9958 ft 191 kts 206°
2026-04-28 20:05 42.43973 -70.37820 9956 ft 191 kts 206°
2026-04-28 20:05 42.42800 -70.38623 9958 ft 191 kts 206°
2026-04-28 20:05 42.41606 -70.39439 9956 ft 191 kts 206°
2026-04-28 20:06 42.40412 -70.40253 9959 ft 192 kts 206°
2026-04-28 20:06 42.39220 -70.41064 9958 ft 191 kts 206°
2026-04-28 20:06 42.38040 -70.41866 9959 ft 191 kts 206°
2026-04-28 20:06 42.36848 -70.42675 9954 ft 191 kts 206°
2026-04-28 20:07 42.36058 -70.43212 9956 ft 192 kts 206°
2026-04-28 20:07 42.34862 -70.44022 9955 ft 192 kts 206°
2026-04-28 20:07 42.33276 -70.45095 9952 ft 192 kts 206°
2026-04-28 20:07 42.32082 -70.45902 9957 ft 192 kts 206°
2026-04-28 20:08 42.31288 -70.46438 9954 ft 192 kts 206°
2026-04-28 20:08 42.30089 -70.47244 9950 ft 192 kts 206°
2026-04-28 20:08 42.28878 -70.48058 9839 ft 197 kts 206°
2026-04-28 20:08 42.27620 -70.48908 9455 ft 210 kts 206°
2026-04-28 20:09 42.26295 -70.49809 9073 ft 215 kts 206°
2026-04-28 20:09 42.24949 -70.50732 8699 ft 217 kts 206°
2026-04-28 20:09 42.23594 -70.51664 8327 ft 217 kts 206°
2026-04-28 20:09 42.22249 -70.52591 7951 ft 217 kts 206°
2026-04-28 20:10 42.20961 -70.53603 7586 ft 217 kts 221°
2026-04-28 20:10 42.20200 -70.55323 7239 ft 215 kts 259°
2026-04-28 20:10 42.20325 -70.57295 6899 ft 211 kts 291°
2026-04-28 20:10 42.20878 -70.59103 6541 ft 210 kts 296°
2026-04-28 20:11 42.21467 -70.60910 6157 ft 210 kts 296°
2026-04-28 20:11 42.22057 -70.62723 5774 ft 210 kts 297°
2026-04-28 20:11 42.22641 -70.64523 5396 ft 209 kts 296°
2026-04-28 20:11 42.23214 -70.66295 5028 ft 208 kts 296°
2026-04-28 20:12 42.23793 -70.68088 4635 ft 207 kts 296°
2026-04-28 20:12 42.24366 -70.69865 4247 ft 206 kts 297°
2026-04-28 20:12 42.24934 -70.71638 3863 ft 204 kts 297°
2026-04-28 20:12 42.25484 -70.73375 3490 ft 202 kts 297°
2026-04-28 20:13 42.26035 -70.75118 3098 ft 200 kts 297°
2026-04-28 20:13 42.26579 -70.76824 2711 ft 196 kts 296°
2026-04-28 20:13 42.27114 -70.78484 2324 ft 193 kts 296°
2026-04-28 20:13 42.27653 -70.80143 2009 ft 189 kts 296°
2026-04-28 20:14 42.28162 -70.81711 1996 ft 175 kts 296°
2026-04-28 20:14 42.28638 -70.83192 2003 ft 169 kts 296°
2026-04-28 20:14 42.29094 -70.84618 1999 ft 166 kts 296°
2026-04-28 20:14 42.29551 -70.86047 2004 ft 165 kts 296°
2026-04-28 20:15 42.30010 -70.87473 1997 ft 165 kts 296°
2026-04-28 20:15 42.30478 -70.88922 1971 ft 171 kts 296°
2026-04-28 20:15 42.30935 -70.90374 2006 ft 169 kts 293°
2026-04-28 20:15 42.31253 -70.91910 2005 ft 169 kts 286°
2026-04-28 20:16 42.31533 -70.93456 2002 ft 168 kts 286°
2026-04-28 20:16 42.31809 -70.94986 2002 ft 167 kts 286°
2026-04-28 20:16 42.32088 -70.96509 2015 ft 167 kts 285°
2026-04-28 20:16 42.32381 -70.98069 1741 ft 180 kts 287°
2026-04-28 20:17 42.32823 -70.99578 1585 ft 160 kts 302°